Time,TemperatureF,DewpointF,PressureIn,WindDirection,WindDirectionDegrees,WindSpeedMPH,WindSpeedGustMPH,Humidity,HourlyPrecipIn,Conditions,Clouds,dailyrainin,SoftwareType,DateUTC
2013-02-24 00:06:00,1.4,-10.7,29.94,North,-999,0.0,0.0,56,0.00,,,-99.99,FreeWX-Wi 1.01,2013-02-24 06:06:00,
2013-02-24 00:16:00,1.9,-10.1,29.94,North,-999,0.0,0.0,56,0.00,,,-99.99,FreeWX-Wi 1.01,2013-02-24 06:16:00,
2013-02-24 00:26:00,1.6,-10.5,29.94,North,-999,0.0,0.0,56,0.00,,,-99.99,FreeWX-Wi 1.01,2013-02-24 06:26:00,
2013-02-24 00:36:00,0.5,-11.4,29.94,North,-999,0.0,0.0,56,0.00,,,-99.99,FreeWX-Wi 1.01,2013-02-24 06:36:00,
2013-02-24 00:46:00,0.0,-11.9,29.94,North,-999,0.0,0.0,56,0.00,,,-99.99,FreeWX-Wi 1.01,2013-02-24 06:46:00,
2013-02-24 00:56:00,0.1,-11.7,29.94,North,-999,0.0,0.0,56,0.00,,,-99.99,FreeWX-Wi 1.01,2013-02-24 06:56:00,
2013-02-24 01:06:00,0.3,-11.6,29.94,North,-999,0.0,0.0,56,0.00,,,-99.99,FreeWX-Wi 1.01,2013-02-24 07:06:00,
2013-02-24 01:16:00,0.3,-11.6,29.94,North,-999,0.0,0.0,56,0.00,,,-99.99,FreeWX-Wi 1.01,2013-02-24 07:16:00,
2013-02-24 01:26:00,0.0,-11.9,29.94,North,-999,0.0,0.0,56,0.00,,,-99.99,FreeWX-Wi 1.01,2013-02-24 07:26:00,
2013-02-24 01:36:00,0.0,-11.9,29.94,North,-999,0.0,0.0,56,0.00,,,-99.99,FreeWX-Wi 1.01,2013-02-24 07:36:00,
2013-02-24 01:46:00,-0.2,-12.1,29.97,North,-999,0.0,0.0,56,0.00,,,-99.99,FreeWX-Wi 1.01,2013-02-24 07:46:00,
2013-02-24 01:56:00,-0.2,-12.1,29.97,North,-999,0.0,0.0,56,0.00,,,-99.99,FreeWX-Wi 1.01,2013-02-24 07:56:00,
2013-02-24 02:06:00,0.0,-11.9,29.97,North,-999,0.0,0.0,56,0.00,,,-99.99,FreeWX-Wi 1.01,2013-02-24 08:06:00,
2013-02-24 02:16:00,0.1,-11.7,29.97,North,-999,0.0,0.0,56,0.00,,,-99.99,FreeWX-Wi 1.01,2013-02-24 08:16:00,
2013-02-24 02:26:00,0.5,-11.4,29.97,North,-999,0.0,0.0,56,0.00,,,-99.99,FreeWX-Wi 1.01,2013-02-24 08:26:00,
2013-02-24 02:36:00,1.0,-11.0,29.94,North,-999,0.0,0.0,56,0.00,,,-99.99,FreeWX-Wi 1.01,2013-02-24 08:36:00,
2013-02-24 02:46:00,1.2,-10.8,29.97,North,-999,0.0,0.0,56,0.00,,,-99.99,FreeWX-Wi 1.01,2013-02-24 08:46:00,
2013-02-24 02:56:00,0.7,-11.2,29.97,North,-999,0.0,0.0,56,0.00,,,-99.99,FreeWX-Wi 1.01,2013-02-24 08:56:00,
2013-02-24 03:06:00,0.0,-11.9,29.97,North,-999,0.0,0.0,56,0.00,,,-99.99,FreeWX-Wi 1.01,2013-02-24 09:06:00,
2013-02-24 03:16:00,-0.2,-12.1,29.97,North,-999,0.0,0.0,56,0.00,,,-99.99,FreeWX-Wi 1.01,2013-02-24 09:16:00,
2013-02-24 03:26:00,-0.6,-12.5,29.97,North,-999,0.0,0.0,56,0.00,,,-99.99,FreeWX-Wi 1.01,2013-02-24 09:26:00,
2013-02-24 03:36:00,-0.2,-12.1,29.97,North,-999,0.0,0.0,56,0.00,,,-99.99,FreeWX-Wi 1.01,2013-02-24 09:36:00,
2013-02-24 03:46:00,-0.4,-12.3,29.97,North,-999,0.0,0.0,56,0.00,,,-99.99,FreeWX-Wi 1.01,2013-02-24 09:46:00,
2013-02-24 03:56:00,-0.9,-12.8,29.97,North,-999,0.0,0.0,56,0.00,,,-99.99,FreeWX-Wi 1.01,2013-02-24 09:56:00,
2013-02-24 04:06:00,-0.9,-12.8,29.97,North,-999,0.0,0.0,56,0.00,,,-99.99,FreeWX-Wi 1.01,2013-02-24 10:06:00,
2013-02-24 04:16:00,-1.5,-13.4,29.97,North,-999,0.0,0.0,56,0.00,,,-99.99,FreeWX-Wi 1.01,2013-02-24 10:16:00,
2013-02-24 04:26:00,-2.0,-13.9,29.97,North,-999,0.0,0.0,56,0.00,,,-99.99,FreeWX-Wi 1.01,2013-02-24 10:26:00,
2013-02-24 04:36:00,-1.8,-13.7,29.97,North,-999,0.0,0.0,56,0.00,,,-99.99,FreeWX-Wi 1.01,2013-02-24 10:36:00,
2013-02-24 04:46:00,-1.8,-13.7,29.97,North,-999,0.0,0.0,56,0.00,,,-99.99,FreeWX-Wi 1.01,2013-02-24 10:46:00,
2013-02-24 04:56:00,-1.8,-13.7,29.97,North,-999,0.0,0.0,56,0.00,,,-99.99,FreeWX-Wi 1.01,2013-02-24 10:56:00,
2013-02-24 05:06:00,-1.3,-13.2,29.97,North,-999,0.0,0.0,56,0.00,,,-99.99,FreeWX-Wi 1.01,2013-02-24 11:06:00,
2013-02-24 05:16:00,-1.1,-13.0,29.97,North,-999,0.0,0.0,56,0.00,,,-99.99,FreeWX-Wi 1.01,2013-02-24 11:16:00,
2013-02-24 05:26:00,-1.7,-13.5,29.97,North,-999,0.0,0.0,56,0.00,,,-99.99,FreeWX-Wi 1.01,2013-02-24 11:26:00,
2013-02-24 05:36:00,-2.0,-13.9,29.97,North,-999,0.0,0.0,56,0.00,,,-99.99,FreeWX-Wi 1.01,2013-02-24 11:36:00,
2013-02-24 05:46:00,-2.2,-14.1,29.97,North,-999,0.0,0.0,56,0.00,,,-99.99,FreeWX-Wi 1.01,2013-02-24 11:46:00,
2013-02-24 05:56:00,-2.2,-14.1,29.97,North,-999,0.0,0.0,56,0.00,,,-99.99,FreeWX-Wi 1.01,2013-02-24 11:56:00,
2013-02-24 06:06:00,-2.6,-14.3,30.00,North,-999,0.0,0.0,56,0.00,,,-99.99,FreeWX-Wi 1.01,2013-02-24 12:06:00,
2013-02-24 06:16:00,-2.6,-14.3,30.00,North,-999,0.0,0.0,56,0.00,,,-99.99,FreeWX-Wi 1.01,2013-02-24 12:16:00,
2013-02-24 06:26:00,-2.6,-14.3,30.00,North,-999,0.0,0.0,56,0.00,,,-99.99,FreeWX-Wi 1.01,2013-02-24 12:26:00,
2013-02-24 06:47:00,-2.6,-14.3,30.00,North,-999,0.0,0.0,56,0.00,,,-99.99,FreeWX-Wi 1.01,2013-02-24 12:47:00,
2013-02-24 06:57:00,-2.2,-14.1,30.00,North,-999,0.0,0.0,56,0.00,,,-99.99,FreeWX-Wi 1.01,2013-02-24 12:57:00,
2013-02-24 07:07:00,-1.5,-13.4,30.00,North,-999,0.0,0.0,56,0.00,,,-99.99,FreeWX-Wi 1.01,2013-02-24 13:07:00,
2013-02-24 07:17:00,-1.1,-13.0,30.00,North,-999,0.0,0.0,56,0.00,,,-99.99,FreeWX-Wi 1.01,2013-02-24 13:17:00,
2013-02-24 07:27:00,-1.1,-13.0,30.00,North,-999,0.0,0.0,56,0.00,,,-99.99,FreeWX-Wi 1.01,2013-02-24 13:27:00,
2013-02-24 07:37:00,-0.4,-12.3,30.00,North,-999,0.0,0.0,56,0.00,,,-99.99,FreeWX-Wi 1.01,2013-02-24 13:37:00,
2013-02-24 07:47:00,0.0,-11.9,30.00,North,-999,0.0,0.0,56,0.00,,,-99.99,FreeWX-Wi 1.01,2013-02-24 13:47:00,
2013-02-24 07:57:00,0.0,-11.9,30.00,North,-999,0.0,0.0,56,0.00,,,-99.99,FreeWX-Wi 1.01,2013-02-24 13:57:00,
2013-02-24 08:07:00,1.2,-10.8,30.03,North,-999,0.0,0.0,56,0.00,,,-99.99,FreeWX-Wi 1.01,2013-02-24 14:07:00,
2013-02-24 08:17:00,2.8,-9.2,30.03,North,-999,0.0,0.0,56,0.00,,,-99.99,FreeWX-Wi 1.01,2013-02-24 14:17:00,
2013-02-24 08:27:00,4.5,-7.8,30.03,North,-999,0.0,0.0,56,0.00,,,-99.99,FreeWX-Wi 1.01,2013-02-24 14:27:00,
2013-02-24 08:37:00,6.1,-6.2,30.03,North,-999,0.0,0.0,56,0.00,,,-99.99,FreeWX-Wi 1.01,2013-02-24 14:37:00,
2013-02-24 08:47:00,7.3,-5.1,30.03,North,-999,0.0,0.0,56,0.00,,,-99.99,FreeWX-Wi 1.01,2013-02-24 14:47:00,
2013-02-24 08:57:00,8.1,-4.4,30.03,North,-999,0.0,0.0,56,0.00,,,-99.99,FreeWX-Wi 1.01,2013-02-24 14:57:00,
2013-02-24 09:07:00,8.8,-3.6,30.03,North,-999,0.0,0.0,56,0.00,,,-99.99,FreeWX-Wi 1.01,2013-02-24 15:07:00,
2013-02-24 09:17:00,10.4,-2.2,30.03,North,-999,0.0,0.0,56,0.00,,,-99.99,FreeWX-Wi 1.01,2013-02-24 15:17:00,
2013-02-24 09:27:00,12.2,-0.4,30.03,North,-999,0.0,0.0,56,0.00,,,-99.99,FreeWX-Wi 1.01,2013-02-24 15:27:00,
2013-02-24 09:37:00,13.5,0.7,30.03,North,-999,0.0,0.0,56,0.00,,,-99.99,FreeWX-Wi 1.01,2013-02-24 15:37:00,
2013-02-24 09:47:00,13.3,0.5,30.03,North,-999,0.0,2.2,56,0.00,,,-99.99,FreeWX-Wi 1.01,2013-02-24 15:47:00,
2013-02-24 09:57:00,13.5,0.7,30.03,North,-999,0.0,2.7,56,0.00,,,-99.99,FreeWX-Wi 1.01,2013-02-24 15:57:00,
2013-02-24 10:07:00,14.5,5.0,30.03,North,-999,0.0,2.7,65,0.00,,,-99.99,FreeWX-Wi 1.01,2013-02-24 16:07:00,
2013-02-24 10:17:00,16.0,6.3,30.06,North,-999,0.0,0.0,65,0.00,,,-99.99,FreeWX-Wi 1.01,2013-02-24 16:17:00,
2013-02-24 10:27:00,17.4,5.9,30.06,North,-999,0.0,2.2,60,0.00,,,-99.99,FreeWX-Wi 1.01,2013-02-24 16:27:00,
2013-02-24 10:37:00,19.0,7.9,30.03,North,-999,0.0,2.2,61,0.00,,,-99.99,FreeWX-Wi 1.01,2013-02-24 16:37:00,
2013-02-24 10:47:00,20.1,6.6,30.06,North,-999,0.0,2.7,55,0.00,,,-99.99,FreeWX-Wi 1.01,2013-02-24 16:47:00,
2013-02-24 10:57:00,20.8,5.5,30.06,North,-999,0.0,2.7,51,0.00,,,-99.99,FreeWX-Wi 1.01,2013-02-24 16:57:00,
2013-02-24 11:07:00,21.0,5.4,30.06,North,-999,0.0,2.2,50,0.00,,,-99.99,FreeWX-Wi 1.01,2013-02-24 17:07:00,
2013-02-24 11:17:00,21.4,4.8,30.06,SSW,203,1.0,3.1,48,0.00,,,-99.99,FreeWX-Wi 1.01,2013-02-24 17:17:00,
2013-02-24 11:27:00,20.7,4.6,30.06,SSW,203,1.0,3.1,49,0.00,,,-99.99,FreeWX-Wi 1.01,2013-02-24 17:27:00,
2013-02-24 11:37:00,21.0,4.8,30.06,SSW,200,1.0,3.6,49,0.00,,,-99.99,FreeWX-Wi 1.01,2013-02-24 17:37:00,
2013-02-24 11:47:00,20.8,4.6,30.06,South,189,2.0,3.6,49,0.00,,,-99.99,FreeWX-Wi 1.01,2013-02-24 17:47:00,
2013-02-24 11:57:00,22.5,7.5,30.06,South,180,2.0,4.0,52,0.00,,,-99.99,FreeWX-Wi 1.01,2013-02-24 17:57:00,
2013-02-24 12:07:00,24.1,8.6,30.06,South,176,2.0,3.6,51,0.00,,,-99.99,FreeWX-Wi 1.01,2013-02-24 18:07:00,
2013-02-24 12:17:00,25.7,10.6,30.06,South,177,2.0,3.1,52,0.00,,,-99.99,FreeWX-Wi 1.01,2013-02-24 18:17:00,
2013-02-24 12:27:00,26.2,9.3,30.06,South,177,2.0,3.6,48,0.00,,,-99.99,FreeWX-Wi 1.01,2013-02-24 18:27:00,
2013-02-24 12:37:00,27.0,10.4,30.06,South,177,2.0,3.6,49,0.00,,,-99.99,FreeWX-Wi 1.01,2013-02-24 18:37:00,
2013-02-24 12:47:00,27.9,9.3,30.06,South,177,2.0,3.1,45,0.00,,,-99.99,FreeWX-Wi 1.01,2013-02-24 18:47:00,
2013-02-24 12:57:00,28.2,10.0,30.06,South,177,1.0,3.1,46,0.00,,,-99.99,FreeWX-Wi 1.01,2013-02-24 18:57:00,
2013-02-24 13:07:00,28.6,10.9,30.06,South,177,1.0,3.1,47,0.00,,,-99.99,FreeWX-Wi 1.01,2013-02-24 19:07:00,
2013-02-24 13:17:00,29.7,11.5,30.06,South,177,1.0,3.1,46,0.00,,,-99.99,FreeWX-Wi 1.01,2013-02-24 19:17:00,
2013-02-24 13:27:00,29.8,10.0,30.06,South,177,1.0,4.0,43,0.00,,,-99.99,FreeWX-Wi 1.01,2013-02-24 19:27:00,
2013-02-24 13:37:00,30.6,10.2,30.06,South,177,2.0,3.6,42,0.00,,,-99.99,FreeWX-Wi 1.01,2013-02-24 19:37:00,
2013-02-24 13:47:00,32.0,12.6,30.06,South,177,2.0,3.1,44,0.00,,,-99.99,FreeWX-Wi 1.01,2013-02-24 19:47:00,
2013-02-24 13:57:00,32.7,12.7,30.06,South,177,1.0,2.7,43,0.00,,,-99.99,FreeWX-Wi 1.01,2013-02-24 19:57:00,
2013-02-24 14:07:00,32.7,12.2,30.03,South,177,1.0,3.1,42,0.00,,,-99.99,FreeWX-Wi 1.01,2013-02-24 20:07:00,
2013-02-24 14:17:00,32.4,11.3,30.03,South,177,1.0,3.1,41,0.00,,,-99.99,FreeWX-Wi 1.01,2013-02-24 20:17:00,
2013-02-24 14:27:00,32.7,12.2,30.03,South,177,2.0,3.6,42,0.00,,,-99.99,FreeWX-Wi 1.01,2013-02-24 20:27:00,
2013-02-24 14:37:00,33.1,12.6,30.03,South,177,2.0,3.1,42,0.00,,,-99.99,FreeWX-Wi 1.01,2013-02-24 20:37:00,
2013-02-24 14:47:00,33.1,11.5,30.03,South,177,1.0,2.7,40,0.00,,,-99.99,FreeWX-Wi 1.01,2013-02-24 20:47:00,
2013-02-24 14:57:00,32.5,10.9,30.03,North,-999,0.0,2.7,40,0.00,,,-99.99,FreeWX-Wi 1.01,2013-02-24 20:57:00,
2013-02-24 15:07:00,32.5,11.5,30.03,North,-999,0.0,2.2,41,0.00,,,-99.99,FreeWX-Wi 1.01,2013-02-24 21:07:00,
2013-02-24 15:17:00,33.1,12.6,30.03,North,-999,0.0,3.1,42,0.00,,,-99.99,FreeWX-Wi 1.01,2013-02-24 21:17:00,
2013-02-24 15:27:00,33.4,12.4,30.03,SSE,164,1.0,4.0,41,0.00,,,-99.99,FreeWX-Wi 1.01,2013-02-24 21:27:00,
2013-02-24 15:37:00,34.2,12.9,30.03,ESE,122,2.0,4.0,41,0.00,,,-99.99,FreeWX-Wi 1.01,2013-02-24 21:37:00,
2013-02-24 15:47:00,34.0,12.7,30.03,East,92,2.0,4.0,41,0.00,,,-99.99,FreeWX-Wi 1.01,2013-02-24 21:47:00,
2013-02-24 15:57:00,33.8,12.6,30.03,East,95,3.0,5.4,41,0.00,,,-99.99,FreeWX-Wi 1.01,2013-02-24 21:57:00,
2013-02-24 16:07:00,33.6,12.9,30.03,East,97,3.0,4.9,42,0.00,,,-99.99,FreeWX-Wi 1.01,2013-02-24 22:07:00,
2013-02-24 16:17:00,33.3,12.7,30.03,East,97,3.0,4.5,42,0.00,,,-99.99,FreeWX-Wi 1.01,2013-02-24 22:17:00,
2013-02-24 16:28:00,32.0,10.9,30.03,East,101,3.0,4.9,41,0.00,,,-99.99,FreeWX-Wi 1.01,2013-02-24 22:28:00,
2013-02-24 16:38:00,30.0,9.7,30.03,ESE,112,3.0,4.9,42,0.00,,,-99.99,FreeWX-Wi 1.01,2013-02-24 22:38:00,
2013-02-24 16:48:00,29.1,9.0,30.03,ESE,120,3.0,4.0,42,0.00,,,-99.99,FreeWX-Wi 1.01,2013-02-24 22:48:00,
2013-02-24 16:58:00,28.9,8.8,30.03,ESE,123,3.0,4.0,42,0.00,,,-99.99,FreeWX-Wi 1.01,2013-02-24 22:58:00,
2013-02-24 17:08:00,29.1,9.0,30.03,ESE,122,2.0,3.6,42,0.00,,,-99.99,FreeWX-Wi 1.01,2013-02-24 23:08:00,
2013-02-24 17:18:00,28.6,8.4,30.03,ESE,121,2.0,3.1,42,0.00,,,-99.99,FreeWX-Wi 1.01,2013-02-24 23:18:00,
2013-02-24 17:28:00,27.7,8.1,30.03,ESE,121,2.0,2.7,43,0.00,,,-99.99,FreeWX-Wi 1.01,2013-02-24 23:28:00,
2013-02-24 17:38:00,26.6,7.2,30.03,ESE,121,1.0,2.7,43,0.00,,,-99.99,FreeWX-Wi 1.01,2013-02-24 23:38:00,
2013-02-24 17:48:00,25.7,6.8,30.03,ESE,121,1.0,2.2,44,0.00,,,-99.99,FreeWX-Wi 1.01,2013-02-24 23:48:00,
2013-02-24 17:58:00,24.4,5.7,30.03,North,-999,0.0,2.2,44,0.00,,,-99.99,FreeWX-Wi 1.01,2013-02-24 23:58:00,
2013-02-24 18:50:00,20.3,3.7,30.06,North,-999,0.0,0.0,48,0.00,,,-99.99,FreeWX-Wi 1.01,2013-02-25 00:50:00,
2013-02-24 19:10:00,19.8,4.1,30.06,North,-999,0.0,0.0,50,0.00,,,-99.99,FreeWX-Wi 1.01,2013-02-25 01:10:00,
2013-02-24 19:20:00,19.2,4.1,30.06,North,-999,0.0,0.0,51,0.00,,,-99.99,FreeWX-Wi 1.01,2013-02-25 01:20:00,
2013-02-24 19:30:00,18.7,4.1,30.06,North,-999,0.0,0.0,52,0.00,,,-99.99,FreeWX-Wi 1.01,2013-02-25 01:30:00,
2013-02-24 19:40:00,18.0,3.4,30.06,North,-999,0.0,0.0,52,0.00,,,-99.99,FreeWX-Wi 1.01,2013-02-25 01:40:00,
2013-02-24 19:50:00,17.4,3.2,30.06,North,-999,0.0,0.0,53,0.00,,,-99.99,FreeWX-Wi 1.01,2013-02-25 01:50:00,
2013-02-24 20:00:00,18.0,4.1,30.03,North,-999,0.0,2.2,54,0.00,,,-99.99,FreeWX-Wi 1.01,2013-02-25 02:00:00,
2013-02-24 20:10:00,18.5,5.0,30.03,North,-999,0.0,0.0,55,0.00,,,-99.99,FreeWX-Wi 1.01,2013-02-25 02:10:00,
2013-02-24 20:20:00,18.7,5.2,30.03,North,-999,0.0,0.0,55,0.00,,,-99.99,FreeWX-Wi 1.01,2013-02-25 02:20:00,
2013-02-24 20:30:00,18.1,4.6,30.06,North,-999,0.0,0.0,55,0.00,,,-99.99,FreeWX-Wi 1.01,2013-02-25 02:30:00,
2013-02-24 20:40:00,17.8,4.5,30.06,North,-999,0.0,0.0,55,0.00,,,-99.99,FreeWX-Wi 1.01,2013-02-25 02:40:00,
2013-02-24 20:50:00,19.0,6.3,30.06,North,-999,0.0,3.6,57,0.00,,,-99.99,FreeWX-Wi 1.01,2013-02-25 02:50:00,
2013-02-24 21:00:00,19.6,6.8,30.06,North,-999,0.0,2.2,57,0.00,,,-99.99,FreeWX-Wi 1.01,2013-02-25 03:00:00,
2013-02-24 21:10:00,19.9,7.5,30.06,North,-999,0.0,0.0,58,0.00,,,-99.99,FreeWX-Wi 1.01,2013-02-25 03:10:00,
2013-02-24 21:20:00,19.9,7.5,30.06,North,-999,0.0,0.0,58,0.00,,,-99.99,FreeWX-Wi 1.01,2013-02-25 03:20:00,
2013-02-24 21:30:00,20.1,7.7,30.06,North,-999,0.0,0.0,58,0.00,,,-99.99,FreeWX-Wi 1.01,2013-02-25 03:30:00,
2013-02-24 21:40:00,20.3,7.9,30.06,North,-999,0.0,0.0,58,0.00,,,-99.99,FreeWX-Wi 1.01,2013-02-25 03:40:00,
2013-02-24 21:50:00,20.3,8.2,30.06,North,-999,0.0,0.0,59,0.00,,,-99.99,FreeWX-Wi 1.01,2013-02-25 03:50:00,
2013-02-24 22:00:00,20.5,8.4,30.06,North,-999,0.0,0.0,59,0.00,,,-99.99,FreeWX-Wi 1.01,2013-02-25 04:00:00,
2013-02-24 22:10:00,20.7,8.6,30.06,North,-999,0.0,0.0,59,0.00,,,-99.99,FreeWX-Wi 1.01,2013-02-25 04:10:00,
2013-02-24 22:20:00,20.7,9.0,30.06,North,-999,0.0,0.0,60,0.00,,,-99.99,FreeWX-Wi 1.01,2013-02-25 04:20:00,
2013-02-24 22:30:00,21.0,9.3,30.06,North,-999,0.0,4.0,60,0.00,,,-99.99,FreeWX-Wi 1.01,2013-02-25 04:30:00,
2013-02-24 22:40:00,21.2,9.5,30.06,North,-999,0.0,3.1,60,0.00,,,-99.99,FreeWX-Wi 1.01,2013-02-25 04:40:00,
2013-02-24 22:50:00,21.4,10.0,30.06,North,-999,0.0,0.0,61,0.00,,,-99.99,FreeWX-Wi 1.01,2013-02-25 04:50:00,
2013-02-24 23:00:00,21.6,10.6,30.06,North,-999,0.0,0.0,62,0.00,,,-99.99,FreeWX-Wi 1.01,2013-02-25 05:00:00,
2013-02-24 23:10:00,21.6,10.6,30.06,North,-999,0.0,0.0,62,0.00,,,-99.99,FreeWX-Wi 1.01,2013-02-25 05:10:00,
2013-02-24 23:20:00,21.6,10.6,30.06,North,-999,0.0,0.0,62,0.00,,,-99.99,FreeWX-Wi 1.01,2013-02-25 05:20:00,
2013-02-24 23:30:00,21.6,10.6,30.06,North,-999,0.0,0.0,62,0.00,,,-99.99,FreeWX-Wi 1.01,2013-02-25 05:30:00,
2013-02-24 23:40:00,21.7,10.8,30.06,North,-999,0.0,0.0,62,0.00,,,-99.99,FreeWX-Wi 1.01,2013-02-25 05:40:00,
2013-02-24 23:50:00,21.7,10.8,30.06,North,-999,0.0,0.0,62,0.00,,,-99.99,FreeWX-Wi 1.01,2013-02-25 05:50:00,